Regional Weather Roundup
Issued by NWS Newport/Morehead, NC

Current Version | Previous Version | Graphics & Text | Print | Product List | Glossary Off
Versions: 1 2 3 4 5 6 7 8 9 10 11 12 13 14 15 16 17 18 19 20 21 22 23 24 25 26 27 28 29 30 31 32 33 34 35 36 37 38 39 40 41 42 43 44 45 46 47 48 49 50

000
ASUS42 KMHX 222225
RWRMHX
WEATHER ROUNDUP FOR EASTERN NORTH CAROLINA
NATIONAL WEATHER SERVICE NEWPORT/MOREHEAD CITY NC
500 PM EST SUN JAN 22 2017

NOTE: "FAIR" INDICATES FEW OR NO CLOUDS BELOW 12,000 FEET
WITH NO SIGNIFICANT WEATHER AND/OR OBSTRUCTIONS TO VISIBILITY

NCZ015>017-031-032-045>047-102-103-222300-
NORTH COAST

CITY           SKY/WX    TMP DP  RH WIND       PRES   REMARKS
EDENTON        CLOUDY    56  55  95 CALM      29.60R FOG
ELIZABETH CITY CLOUDY    53  52  96 N6        29.58R FOG
KITTY HAWK     NOT AVBL
MANTEO         FOG       50  50 100 NE6       29.59R VSB 3/4

$$

NCZ045>047-081-094-103-104-222300-
CENTRAL COAST

CITY           SKY/WX    TMP DP  RH WIND       PRES   REMARKS
FRISCO         CLOUDY    58  56  93 NW5       29.57R FOG

$$

NCZ095-097-098-100-101-222300-
SOUTHERN COAST

CITY           SKY/WX    TMP DP  RH WIND       PRES   REMARKS
BEAUFORT       CLOUDY    61  59  93 N3        29.57S
CEDAR ISLAND   NOT AVBL
JACKSONVILLE   CLOUDY    61  60  97 CALM      29.57S
PINEY ISLAND   CLOUDY   N/A N/A N/A CALM      29.57S
WILMINGTON     CLOUDY    61  60  97 CALM      29.55F


$$

NCZ011>013-027>030-043-044-078>080-089-090>093-098-222300-
COASTAL PLAIN

CITY           SKY/WX    TMP DP  RH WIND       PRES   REMARKS
AHOSKIE        DRIZZLE   52  51  98 CALM      29.61R
CLINTON        CLOUDY    62  60  94 N6        29.56F
ELIZABETHTOWN  CLOUDY    63  61  94 CALM      29.54F
GOLDSBORO      CLOUDY    59  59 100 CALM      29.56R
GREENVILLE     CLOUDY    59  57  94 CALM      29.63R
HAVELOCK       CLOUDY    62  58  86 CALM      29.58R
KENANSVILLE    CLOUDY    63  59  88 CALM      29.56F
KINSTON        CLOUDY    61  57  88 CALM      29.58R
NEW BERN       CLOUDY    61  58  90 CALM      29.58F
RICHLANDS      CLOUDY    61  59  93 E3        29.57S
ROCKY MOUNT    CLOUDY    55  55 100 CALM      29.61R
WASHINGTON     CLOUDY    60  57  91 CALM        N/A
WHITEVILLE     CLOUDY    61  59  93 CALM      29.52F

$$

AMZ130-135-150-152-154-156-158-170-250-252-270-ANZ085-086-088-633-658-670-222300-
MARINE OBSERVATIONS

STATION/POSITION TIME  TEMP    WIND        PRES    WAVE   SWELL
                       AIR SEA DIR/SP/G            HT/PER HT/PER
                 (UTC) (F)     (DEG/KT/KT) (MB)    (FT/S) (FT/S)
CHESAPEAKE LIGHT NOT AVBL
64 E VA BEACH    2150   51 56  260/ 10/ 12 1001.0    5/13   5/13
DUCK             2200   47 46   20/  6/  6 1000.9
2 E DUCK         2200      47                N/A     3/13   2/13
OREGON INLET     2200   49 51  360/  5/  8 1001.5
13E OREGON INLT  NOT AVBL
HATTERAS CG      2200   56 54  280/  5/  6 1001.1
DIAMOND BUOY     2150   67 71  260/ 14/ 16 1001.1    4/11   3/11
CAPE LOOKOUT     2200   59     340/  3/  4 1000.9
BEAUFORT LAB     2200   60 52  350/  2/  4 1000.3
30 SE NEW RVR IN 2208   61 66  350/  4/ 10 1000.9
30 SE NEW RVR IN 2213      66                N/A     5/ 7   2/13
27 SE WRIGHTSVLE 2208   65 66  270/ 12/ 16 1001.0
5 SE WRIGHTSVLE  2208   56     110/  2/  6 1000.7
225 S CAPE HAT   2150   73 71  210/ 17/ 19 1003.9    8/ 8   5/13
41 SE CHARLESTON 2150   65 67  160/ 14/ 17  999.4    6/ 7   3/ 7

$$




USA.gov is the U.S. government's official web portal to all federal, state and local government web resources and services.